Time,TemperatureF,DewpointF,PressureIn,WindDirection,WindDirectionDegrees,WindSpeedMPH,WindSpeedGustMPH,Humidity,HourlyPrecipIn,Conditions,Clouds,dailyrainin,SolarRadiationWatts/m^2,SoftwareType,DateUTC
2013-03-12 00:02:00,48.0,30.0,-100.00,East,101,2.0,3.0,49,0.00,,,0.00,1.000000,,2013-03-12 07:02:00,
2013-03-12 00:32:00,49.0,32.0,-100.00,NE,38,3.0,5.0,51,0.00,,,0.00,1.000000,,2013-03-12 07:32:00,
2013-03-12 00:42:00,49.0,32.0,-100.00,NE,38,3.0,5.0,51,0.00,,,0.00,1.000000,,2013-03-12 07:42:00,
2013-03-12 00:52:00,49.0,32.0,-100.00,NE,38,3.0,5.0,51,0.00,,,0.00,1.000000,,2013-03-12 07:52:00,
2013-03-12 01:02:00,49.0,32.0,-100.00,NE,38,3.0,5.0,51,0.00,,,0.00,1.000000,,2013-03-12 08:02:00,
2013-03-12 01:33:00,50.0,30.0,-100.00,NNE,29,4.0,5.0,46,0.00,,,0.00,1.000000,,2013-03-12 08:33:00,
2013-03-12 01:42:00,50.0,30.0,-100.00,NNE,29,4.0,5.0,46,0.00,,,0.00,1.000000,,2013-03-12 08:42:00,
2013-03-12 01:52:00,50.0,30.0,-100.00,NNE,29,4.0,5.0,46,0.00,,,0.00,1.000000,,2013-03-12 08:52:00,
2013-03-12 02:02:00,50.0,30.0,-100.00,NNE,29,4.0,5.0,46,0.00,,,0.00,1.000000,,2013-03-12 09:02:00,
2013-03-12 02:33:00,50.0,28.0,-100.00,NNE,25,4.0,7.0,43,0.00,,,0.00,1.000000,,2013-03-12 09:33:00,
2013-03-12 02:42:00,50.0,28.0,-100.00,NNE,25,4.0,7.0,43,0.00,,,0.00,1.000000,,2013-03-12 09:42:00,
2013-03-12 02:52:00,50.0,28.0,-100.00,NNE,25,4.0,7.0,43,0.00,,,0.00,1.000000,,2013-03-12 09:52:00,
2013-03-12 03:02:00,50.0,28.0,-100.00,NNE,25,4.0,7.0,43,0.00,,,0.00,1.000000,,2013-03-12 10:02:00,
2013-03-12 03:33:00,49.0,27.0,-100.00,NE,41,3.0,6.0,42,0.00,,,0.00,1.000000,,2013-03-12 10:33:00,
2013-03-12 03:42:00,49.0,27.0,-100.00,NE,41,3.0,6.0,42,0.00,,,0.00,1.000000,,2013-03-12 10:42:00,
2013-03-12 03:52:00,49.0,27.0,-100.00,NE,41,3.0,6.0,42,0.00,,,0.00,1.000000,,2013-03-12 10:52:00,
2013-03-12 04:02:00,49.0,27.0,-100.00,NE,41,3.0,6.0,42,0.00,,,0.00,1.000000,,2013-03-12 11:02:00,
2013-03-12 04:32:00,42.0,27.0,-100.00,NNW,330,3.0,5.0,54,0.00,,,0.00,1.000000,,2013-03-12 11:32:00,
2013-03-12 04:42:00,42.0,27.0,-100.00,NNW,330,3.0,5.0,54,0.00,,,0.00,1.000000,,2013-03-12 11:42:00,
2013-03-12 04:52:00,42.0,27.0,-100.00,NNW,330,3.0,5.0,54,0.00,,,0.00,1.000000,,2013-03-12 11:52:00,
2013-03-12 05:02:00,42.0,27.0,-100.00,NNW,330,3.0,5.0,54,0.00,,,0.00,1.000000,,2013-03-12 12:02:00,
2013-03-12 05:32:00,39.0,25.0,-100.00,North,11,3.0,5.0,58,0.00,,,0.00,1.000000,,2013-03-12 12:32:00,
2013-03-12 05:42:00,39.0,25.0,-100.00,North,11,3.0,5.0,58,0.00,,,0.00,1.000000,,2013-03-12 12:42:00,
2013-03-12 05:52:00,39.0,25.0,-100.00,North,11,3.0,5.0,58,0.00,,,0.00,1.000000,,2013-03-12 12:52:00,
2013-03-12 06:01:00,39.0,25.0,-100.00,North,11,3.0,5.0,58,0.00,,,0.00,1.000000,,2013-03-12 13:01:00,
2013-03-12 06:33:00,41.0,24.0,-100.00,SE,126,3.0,6.0,50,0.00,,,0.00,0.000000,,2013-03-12 13:33:00,
2013-03-12 06:43:00,41.0,24.0,-100.00,SE,126,3.0,6.0,50,0.00,,,0.00,0.000000,,2013-03-12 13:43:00,
2013-03-12 06:52:00,41.0,24.0,-100.00,SE,126,3.0,6.0,50,0.00,,,0.00,0.000000,,2013-03-12 13:52:00,
2013-03-12 07:02:00,41.0,24.0,-100.00,SE,126,3.0,6.0,50,0.00,,,0.00,0.000000,,2013-03-12 14:02:00,
2013-03-12 07:33:00,43.0,22.0,-100.00,SE,141,2.0,5.0,42,0.00,,,0.00,9.000000,,2013-03-12 14:33:00,
2013-03-12 08:32:00,54.0,34.0,-100.00,WNW,285,1.0,5.0,47,0.00,,,0.00,170.000000,,2013-03-12 15:32:00,
2013-03-12 08:42:00,54.0,34.0,-100.00,WNW,285,1.0,5.0,47,0.00,,,0.00,170.000000,,2013-03-12 15:42:00,
2013-03-12 08:53:00,54.0,34.0,-100.00,WNW,285,1.0,5.0,47,0.00,,,0.00,170.000000,,2013-03-12 15:53:00,
2013-03-12 09:02:00,54.0,34.0,-100.00,WNW,285,1.0,5.0,47,0.00,,,0.00,170.000000,,2013-03-12 16:02:00,
2013-03-12 09:33:00,62.0,33.0,-100.00,SSE,168,2.0,4.0,33,0.00,,,0.00,391.000000,,2013-03-12 16:33:00,
2013-03-12 09:43:00,62.0,33.0,-100.00,SSE,168,2.0,4.0,33,0.00,,,0.00,391.000000,,2013-03-12 16:43:00,
2013-03-12 09:53:00,62.0,33.0,-100.00,SSE,168,2.0,4.0,33,0.00,,,0.00,391.000000,,2013-03-12 16:53:00,
2013-03-12 10:02:00,62.0,33.0,-100.00,SSE,168,2.0,4.0,33,0.00,,,0.00,391.000000,,2013-03-12 17:02:00,
2013-03-12 10:34:00,67.0,30.0,-100.00,WSW,255,4.0,5.0,25,0.00,,,0.00,594.000000,,2013-03-12 17:34:00,
2013-03-12 10:44:00,67.0,30.0,-100.00,WSW,255,4.0,5.0,25,0.00,,,0.00,594.000000,,2013-03-12 17:44:00,
2013-03-12 10:53:00,67.0,30.0,-100.00,WSW,255,4.0,5.0,25,0.00,,,0.00,594.000000,,2013-03-12 17:53:00,
2013-03-12 11:02:00,67.0,30.0,-100.00,WSW,255,4.0,5.0,25,0.00,,,0.00,594.000000,,2013-03-12 18:02:00,
2013-03-12 11:33:00,72.0,32.0,-100.00,WSW,238,4.0,7.0,23,0.00,,,0.00,752.000000,,2013-03-12 18:33:00,
2013-03-12 11:43:00,72.0,32.0,-100.00,WSW,238,4.0,7.0,23,0.00,,,0.00,752.000000,,2013-03-12 18:43:00,
2013-03-12 11:53:00,72.0,32.0,-100.00,WSW,238,4.0,7.0,23,0.00,,,0.00,752.000000,,2013-03-12 18:53:00,
2013-03-12 12:03:00,72.0,32.0,-100.00,WSW,238,4.0,7.0,23,0.00,,,0.00,752.000000,,2013-03-12 19:03:00,
2013-03-12 12:33:00,75.0,27.0,-100.00,WSW,254,7.0,11.0,17,0.00,,,0.00,857.000000,,2013-03-12 19:33:00,
2013-03-12 12:43:00,75.0,27.0,-100.00,WSW,254,7.0,11.0,17,0.00,,,0.00,857.000000,,2013-03-12 19:43:00,
2013-03-12 12:53:00,75.0,27.0,-100.00,WSW,254,7.0,11.0,17,0.00,,,0.00,857.000000,,2013-03-12 19:53:00,
2013-03-12 13:02:00,75.0,27.0,-100.00,WSW,254,7.0,11.0,17,0.00,,,0.00,857.000000,,2013-03-12 20:02:00,
2013-03-12 13:33:00,79.0,22.0,-100.00,West,267,7.0,12.0,12,0.00,,,0.00,893.000000,,2013-03-12 20:33:00,
2013-03-12 13:42:00,79.0,22.0,-100.00,West,267,7.0,12.0,12,0.00,,,0.00,893.000000,,2013-03-12 20:42:00,
2013-03-12 13:53:00,79.0,22.0,-100.00,West,267,7.0,12.0,12,0.00,,,0.00,893.000000,,2013-03-12 20:53:00,
2013-03-12 14:02:00,79.0,22.0,-100.00,West,267,7.0,12.0,12,0.00,,,0.00,893.000000,,2013-03-12 21:02:00,
2013-03-12 14:33:00,81.0,22.0,-100.00,West,266,7.0,12.0,11,0.00,,,0.00,858.000000,,2013-03-12 21:33:00,
2013-03-12 14:43:00,81.0,22.0,-100.00,West,266,7.0,12.0,11,0.00,,,0.00,858.000000,,2013-03-12 21:43:00,
2013-03-12 14:52:00,81.0,22.0,-100.00,West,266,7.0,12.0,11,0.00,,,0.00,858.000000,,2013-03-12 21:52:00,
2013-03-12 15:02:00,81.0,22.0,-100.00,West,266,7.0,12.0,11,0.00,,,0.00,858.000000,,2013-03-12 22:02:00,
2013-03-12 15:33:00,82.0,22.0,-100.00,NW,312,7.0,12.0,11,0.00,,,0.00,755.000000,,2013-03-12 22:33:00,
2013-03-12 15:43:00,82.0,22.0,-100.00,NW,312,7.0,12.0,11,0.00,,,0.00,755.000000,,2013-03-12 22:43:00,
2013-03-12 15:53:00,82.0,22.0,-100.00,NW,312,7.0,12.0,11,0.00,,,0.00,755.000000,,2013-03-12 22:53:00,
2013-03-12 16:02:00,82.0,22.0,-100.00,NW,312,7.0,12.0,11,0.00,,,0.00,755.000000,,2013-03-12 23:02:00,
2013-03-12 16:34:00,83.0,23.0,-100.00,WNW,303,6.0,13.0,11,0.00,,,0.00,592.000000,,2013-03-12 23:34:00,
2013-03-12 16:43:00,83.0,23.0,-100.00,WNW,303,6.0,13.0,11,0.00,,,0.00,592.000000,,2013-03-12 23:43:00,
2013-03-12 16:52:00,83.0,23.0,-100.00,WNW,303,6.0,13.0,11,0.00,,,0.00,592.000000,,2013-03-12 23:52:00,
2013-03-12 17:33:00,81.0,26.0,-100.00,WNW,290,7.0,14.0,13,0.00,,,0.00,385.000000,,2013-03-13 00:33:00,
2013-03-12 17:42:00,81.0,26.0,-100.00,WNW,290,7.0,14.0,13,0.00,,,0.00,385.000000,,2013-03-13 00:42:00,
2013-03-12 17:53:00,81.0,26.0,-100.00,WNW,290,7.0,14.0,13,0.00,,,0.00,385.000000,,2013-03-13 00:53:00,
2013-03-12 18:02:00,81.0,26.0,-100.00,WNW,290,7.0,14.0,13,0.00,,,0.00,385.000000,,2013-03-13 01:02:00,
2013-03-12 18:33:00,78.0,30.0,-100.00,WNW,290,6.0,11.0,17,0.00,,,0.00,161.000000,,2013-03-13 01:33:00,
2013-03-12 18:43:00,78.0,30.0,-100.00,WNW,290,6.0,11.0,17,0.00,,,0.00,161.000000,,2013-03-13 01:43:00,
2013-03-12 18:52:00,78.0,30.0,-100.00,WNW,290,6.0,11.0,17,0.00,,,0.00,161.000000,,2013-03-13 01:52:00,
2013-03-12 19:02:00,78.0,30.0,-100.00,WNW,290,6.0,11.0,17,0.00,,,0.00,161.000000,,2013-03-13 02:02:00,
2013-03-12 19:33:00,72.0,31.0,-100.00,NE,45,7.0,10.0,22,0.00,,,0.00,6.000000,,2013-03-13 02:33:00,
2013-03-12 19:43:00,72.0,31.0,-100.00,NE,45,7.0,10.0,22,0.00,,,0.00,6.000000,,2013-03-13 02:43:00,
2013-03-12 19:52:00,72.0,31.0,-100.00,NE,45,7.0,10.0,22,0.00,,,0.00,6.000000,,2013-03-13 02:52:00,
2013-03-12 20:01:00,72.0,31.0,-100.00,NE,45,7.0,10.0,22,0.00,,,0.00,6.000000,,2013-03-13 03:01:00,
2013-03-12 20:32:00,68.0,27.0,-100.00,SSE,149,2.0,9.0,21,0.00,,,0.00,1.000000,,2013-03-13 03:32:00,
2013-03-12 20:42:00,68.0,27.0,-100.00,SSE,149,2.0,9.0,21,0.00,,,0.00,1.000000,,2013-03-13 03:42:00,
2013-03-12 20:52:00,68.0,27.0,-100.00,SSE,149,2.0,9.0,21,0.00,,,0.00,1.000000,,2013-03-13 03:52:00,
2013-03-12 21:02:00,68.0,27.0,-100.00,SSE,149,2.0,9.0,21,0.00,,,0.00,1.000000,,2013-03-13 04:02:00,
2013-03-12 21:32:00,65.0,30.0,-100.00,East,81,2.0,7.0,27,0.00,,,-99.99,1.000000,,2013-03-13 04:32:00,
2013-03-12 21:43:00,65.0,30.0,-100.00,East,81,2.0,7.0,27,0.00,,,-99.99,1.000000,,2013-03-13 04:43:00,
2013-03-12 21:53:00,65.0,30.0,-100.00,East,81,2.0,7.0,27,0.00,,,-99.99,1.000000,,2013-03-13 04:53:00,
2013-03-12 22:02:00,65.0,30.0,-100.00,East,81,2.0,7.0,27,0.00,,,-99.99,1.000000,,2013-03-13 05:02:00,
2013-03-12 22:32:00,57.0,28.0,-100.00,NNE,21,2.0,5.0,33,0.00,,,0.00,1.000000,,2013-03-13 05:32:00,
2013-03-12 22:42:00,57.0,28.0,-100.00,NNE,21,2.0,5.0,33,0.00,,,0.00,1.000000,,2013-03-13 05:42:00,
2013-03-12 22:52:00,57.0,28.0,-100.00,NNE,21,2.0,5.0,33,0.00,,,0.00,1.000000,,2013-03-13 05:52:00,
2013-03-12 23:02:00,57.0,28.0,-100.00,NNE,21,2.0,5.0,33,0.00,,,0.00,1.000000,,2013-03-13 06:02:00,
2013-03-12 23:33:00,55.0,32.0,-100.00,NNE,23,1.0,5.0,41,0.00,,,0.00,1.000000,,2013-03-13 06:33:00,
2013-03-12 23:42:00,55.0,32.0,-100.00,NNE,23,1.0,5.0,41,0.00,,,0.00,1.000000,,2013-03-13 06:42:00,
2013-03-12 23:52:00,55.0,32.0,-100.00,NNE,23,1.0,5.0,41,0.00,,,0.00,1.000000,,2013-03-13 06:52:00,